Regional Weather Roundup
Issued by NWS

Home | Current Version | Previous Version | Text Only | Print | Product List | Glossary On
Versions: 1 2 3 4 5 6 7 8 9 10 11 12 13 14 15 16 17 18 19 20 21 22 23 24 25 26 27 28 29 30 31 32 33 34 35 36 37 38 39 40 41 42 43 44 45 46 47 48 49 50
000
ASUS43 KMKX 312020
RWRWI

WISCONSIN REGIONAL WEATHER ROUNDUP
NATIONAL WEATHER SERVICE MILWAUKEE/SULLIVAN WI
300 PM CDT TUE MAR 31 2015

NOTE: "FAIR" INDICATES FEW OR NO CLOUDS BELOW 12,000 FEET WITH NO
SIGNIFICANT WEATHER AND/OR OBSTRUCTIONS TO VISIBILITY.

WIZ001-002-006>008-014>016-023>028-312100-
NORTHWEST WISCONSIN

CITY           SKY/WX    TMP DP  RH WIND       PRES   REMARKS
SUPERIOR ARPT  SUNNY     58  33  38 NW16G25   29.86S
ASHLAND        MOSUNNY   52  32  46 NW13G23   29.87S
HAYWARD        SUNNY     56  26  31 NW13G22   29.86R
SIREN          SUNNY     60  23  24 NW17G23   29.88S
CUMBERLAND     SUNNY     57  27  30 NW13G20   29.87S
RICE LAKE      SUNNY     60  25  26 W17G23    29.89S
CHETEK         SUNNY     60  30  31 W10G17    29.87S
LADYSMITH      PTSUNNY   58  32  38 W17G26    29.87S
EAU CLAIRE     SUNNY     62  28  27 W15G25    29.87F
MENOMONIE      SUNNY     62  27  26 W20       29.88F
NEW RICHMOND   SUNNY     62  26  26 N13G23    29.89F
OSCEOLA        SUNNY     62  29  28 W13G22    29.92S
$$

WIZ003>005-009-010-017-018-312100-
NORTH CENTRAL WISCONSIN

CITY           SKY/WX    TMP DP  RH WIND       PRES   REMARKS
MANITOWISH WTR CLOUDY    43  33  68 W12G18    29.86R
ARBOR VITAE    MOSUNNY   47  33  59 NW16G22   29.85R
WOODRUFF       MOSUNNY   47  33  59 NW16G22   29.85R
RHINELANDER    MOSUNNY   50  29  44 NW13G30   29.83R
EAGLE RIVER    PTSUNNY   45  30  55 NW13G23   29.83R
LAND O LAKES   CLOUDY    41  33  73 NW8G18    29.85R
PHILLIPS       PTSUNNY   52  32  46 NW13G24   29.83S
TOMAHAWK       PTSUNNY   51  32  47 NW15G21   29.84R
MEDFORD        PTSUNNY   53  37  54 W20G25    29.84F
MERRILL        MOSUNNY   54  31  42 NW17G26   29.83R
$$

WIZ029-030-035-036-043>047-312100-
CENTRAL WISCONSIN

CITY           SKY/WX    TMP DP  RH WIND       PRES   REMARKS
WAUSAU         SUNNY     54  35  48 W23       29.83S
MOSINEE        MOSUNNY   54  36  50 W14G24    29.85F
MARSHFIELD     MOSUNNY   56  36  47 W16G24    29.86F
STEVENS POINT  PTSUNNY   54  35  47 W16G24    29.85F
WAUPACA        PTSUNNY   57  36  45 W13       29.87S
WAUTOMA        PTSUNNY   58  37  45 W9        29.88F
WISC RAPIDS    MOSUNNY   59  31  34 NW20      29.87F
CAMP DOUGLAS   CLOUDY    61  37  41 W17       29.87F
$$

WIZ011>013-019>022-031-037>040-048>050-312100-
NORTHEAST WISCONSIN

CITY           SKY/WX    TMP DP  RH WIND       PRES   REMARKS
ANTIGO         CLOUDY    52  40  63 W13G20    29.81F
SHAWANO        PTSUNNY   56  37  47 W13G20    29.84F
OCONTO         CLOUDY    50  32  51 SW5       29.83F
STURGEON BAY   MOSUNNY   45  32  61 S13       29.88S
GREEN BAY      CLOUDY    52  38  58 SW10G20   29.86F
MANITOWOC      SUNNY     46  35  65 S12       29.89F
APPLETON       PTSUNNY   52  34  50 SW15G21   29.87F
CLINTONVILLE   PTSUNNY   54  36  50 W12       29.85S
OSHKOSH        MOSUNNY   55  37  50 SW8G16    29.87F
$$

WIZ032>034-041-042-053>061-312100-
SOUTHWEST WISCONSIN

CITY           SKY/WX    TMP DP  RH WIND       PRES   REMARKS
LA CROSSE      MOSUNNY   65  29  25 NW14      29.90F
SPARTA         SUNNY     61  30  30 NW13G18   29.90S
VIROQUA        MOSUNNY   59  33  36 NW14      29.90F
BOSCOBEL       MOSUNNY   64  34  32 NW12G17   29.91F
PRAIRIE DU CHI SUNNY     62  31  30 W7G18     29.91F
PLATTEVILLE    MOSUNNY   60  37  41 W12       29.92F
$$

WIZ056-057-062-063-064-067-068-312100-
SOUTH CENTRAL WISCONSIN

CITY           SKY/WX    TMP DP  RH WIND       PRES   REMARKS
REEDSBURG      PTSUNNY   59  35  39 W9        29.89S
BARABOO/DELLS  MOSUNNY   57  32  38 NW12      29.89S
LONE ROCK      PTSUNNY   61  34  36 W12       29.90F
MINERAL POINT  MOSUNNY   57  36  44 CALM      29.92F
MADISON        PTSUNNY   60  36  40 NW10      29.90F
MIDDLETON      MOSUNNY   60  33  36 NW7       29.90F
WATERTOWN      MOSUNNY   55  36  47 W8        29.90F
MONROE         MOSUNNY   57  37  47 NW8G16    29.92F
JANESVILLE     MOSUNNY   61  34  36 NW7       29.91F
$$

WIZ051-052-058>065-066-070>072-312100-
SOUTHEAST WISCONSIN

CITY           SKY/WX    TMP DP  RH WIND       PRES   REMARKS
MILWAUKEE      MOSUNNY   49  33  54 SE10      29.92F
WAUKESHA       MOSUNNY   52  32  46 NW12      29.92F
MILWAUKEE/TIMM SUNNY     54  27  35 W10       29.91
RACINE         SUNNY     48  33  56 E9        29.95S
BURLINGTON     SUNNY     53  33  47 NW7       29.92F
KENOSHA        MOSUNNY   51  36  56 SE9       29.93F
FOND DU LAC    MOSUNNY   53  35  50 VRB6G16   29.88F
SHEBOYGAN      PTSUNNY   50  36  58 S12       29.89S
WEST BEND      SUNNY     52  30  43 W12       29.89F
JUNEAU         SUNNY     52  36  54 NW5       29.91F
$$

LSZ147-162-312100-
LAKE SUPERIOR

STATION/POSITION TIME  TEMP    WIND        PRES    WAVE
                       AIR SEA DIR/SP/G            HT/PER
                 (UTC) (F)     (DEG/KT/KT) (MB)    (FT/S)
DEVILS ISLAND    2000   39     260/ 14/ 16 1012.4R
PORT WING        1900   44     290/  4/  6 1012.2
SAXON HARBOR     1900   44     290/  6/ 13 1011.5R
$$

LMZ867-665-643>646-312100-
LAKE MICHIGAN

STATION/POSITION TIME  TEMP    WIND        PRES    WAVE
                       AIR SEA DIR/SP/G            HT/PER
                 (UTC) (F)     (DEG/KT/KT) (MB)    (FT/S)
NORTHPORT PIER   1900   33     140/ 11/ 12 1011.9F
SISTER BAY       1802   47     180/ 10/ 14   N/A
KEWAUNEE LAKESHO 1900   37     160/  9/ 12 1011.3F
SHEBOYGAN LAKESH 2000   36     160/ 10/ 11 1013.4F
PORT WASHINGTON  1940   42     170/  5/  8 1013.9F
MILWAUKEE LAKESH 2000   38     150/  7/  9   N/A
KENOSHA   LAKESH 2000   39     180/  8/ 10 1013.9F
$$

TC  - TEMPERATURE IN CELSIUS
VSB - VISIBILITY IN STATUTE MILES
WCI - WIND CHILL INDEX
HX  - HEAT INDEX



USA.gov is the U.S. government's official web portal to all federal, state and local government web resources and services.